Miscellaneous Local Product
Issued by NWS North Platte, NE

Home | Current Version | Previous Version | Text Only | Print | Product List | Glossary On
Versions: 1 2 3 4 5 6 7 8 9 10 11 12 13 14 15 16 17 18 19 20 21 22 23 24 25 26 27 28 29 30 31 32 33 34 35 36 37 38 39 40 41 42 43 44 45 46 47 48 49 50
000
AXUS43 KLBF 022310
MISLBF


WESTERN AND NORTH CENTRAL NEBRASKA HOURLY WEATHER ROUNDUP
NATIONAL WEATHER SERVICE NORTH PLATTE NE
600 PM CDT SUN AUG 02 2015

***STATIONS NOT REPORTING VARIABLES SUCH AS SKY/WEATHER OR
PRESSURE ARE PROVIDED BY THE NEBRASKA DEPARTMENT OF
ROADS...RAWS...AND APRS NETWORKS...AND ARE NOT UNDER
NATIONAL WEATHER SERVICE QUALITY CONTROL***

...OBSERVATIONS IN AND NEAR THE EASTERN PANHANDLE OF NEBRASKA...

CITY           SKY/WX    TMP DP  RH WIND       PRES   REMARKS
PINE RIDGE     SUNNY     87  54  32 E12       29.96F
CHADRON        SUNNY     92  56  29 NE15G22   29.93F HX  90
ALLIANCE       MOSUNNY   89  48  24 W9        29.96F
SIDNEY         CLOUDY    87  47  24 S12       30.02R
BIG SPRINGS      N/A     87  60  39 W5          N/A
$$

...OBSERVATIONS IN NORTH CENTRAL NEBRASKA...

CITY           SKY/WX    TMP DP  RH WIND       PRES   REMARKS
THEDFORD       PTSUNNY   91  57  31 SW12      29.93S
AINSWORTH      SUNNY     86  63  45 E8        29.93S
O`NEILL        SUNNY     86  63  45 NE10      29.90S
ORD            PTSUNNY   81  72  74 W10       29.88R
BROKEN BOW     CLOUDY    83  60  45 SE8       29.93R
SPRINGVIEW       N/A     86  65  49 E6G13       N/A
CHAMBERS         N/A     90  62  38 N9          N/A  HX  90
EWING            N/A     87  70  56 CALM        N/A  HX  91
$$

...OBSERVATIONS IN SOUTHWEST NEBRASKA AND FAR NORTHEAST COLORADO...

CITY           SKY/WX    TMP DP  RH WIND       PRES   REMARKS
WRAY           FAIR      97  42  14 E7        29.95S HX  93
HOLYOKE        FAIR      95  37  13 N8        29.96S HX  90
IMPERIAL       CLOUDY    94  54  25 E9        29.92S HX  92
OGALLALA       PTSUNNY   91  56  29 E7        29.93R
NORTH PLATTE   LGT RAIN  79  55  43 W12G17    29.94R
MCCOOK         PTSUNNY   84  54  35 NE26G35   29.89R
LEXINGTON      CLOUDY    82  56  40 SW10      29.94R
PAXTON           N/A     84  58  40 E6          N/A
BRADY            N/A     75  63  66 NE3         N/A
CALLAWAY         N/A     78  62  57 SW5         N/A
$$

...NORTH PLATTE AREA...

CITY           SKY/WX    TMP DP  RH WIND       PRES   REMARKS
AIRPORT        LGT RAIN  79  55  43 W12G17    29.94R
DOWNTOWN         N/A     82  57  42 SE5         N/A
SANDRIDGE        N/A     86  55  34 E5G14       N/A
HILLCREST        N/A     82  55  39 S9G16       N/A
$$

...SOME WEATHER OBSERVATIONS FROM AROUND THE REGION...

CITY           SKY/WX    TMP DP  RH WIND       PRES   REMARKS
DENVER         CLOUDY    77  48  35 SW26G35   30.09R THUNDER
LARAMIE        MOSUNNY   81  36  19 SE10      30.18F
CHEYENNE       MOSUNNY   87  40  19 SE12G17   30.12F
SCOTTSBLUFF    MOSUNNY   91  51  25 E12       29.97R
RAPID CITY     SUNNY     86  53  32 NE6       29.98F
PIERRE         SUNNY     87  53  31 N14       29.89S
WINNER         FAIR      88  57  34 NE6       29.91S
SIOUX FALLS    SUNNY     83  60  45 N9        29.85R
OMAHA          MOSUNNY   91  76  61 N14       29.78S HX 103
GRAND ISLAND   CLOUDY    85  73  67 SW6       29.86S HX  91
KANSAS CITY    MOSUNNY   89  72  56 SW7       29.85S HX  96
WICHITA        MOSUNNY   90  68  48 S9        29.88F HX  94
HAYS           SUNNY     95  63  34 S10       29.87S HX  96
LIBERAL        SUNNY     91  64  40 SE7       29.90F HX  93
GOODLAND       MOSUNNY   95  47  19 SE8       29.95F HX  91
$$



USA.gov is the U.S. government's official web portal to all federal, state and local government web resources and services.